Simultaneous Nadir Overpasses (SNOs) Predictions

Prediction of SNOs between LANDSAT-8 and METOP-A Satellite Orbit:

Table of predicted SNOs for the next 14.0 days since TLE Epoch: 7/9/2015
Index Date (LANDSAT-8) Time (LANDSAT-8) Lat,Lon (LANDSAT-8) SZA (LANDSAT-8 ) Date (METOP-A) Time (METOP-A) Lat,Lon (METOP-A) SZA (METOP-A ) Distance(km) Time Diff (sec)
1 07/10/2015 04:37:49 81.19, 151.62 61.05 07/10/2015 04:37:28 81.20, 151.42 61.02 3.32 21
2 07/10/2015 05:27:15 -81.21, -40.42 118.90 07/10/2015 05:28:07 -81.22, -40.54 118.89 2.03 52
3 07/13/2015 00:12:04 81.21,-141.63 61.46 07/13/2015 00:11:44 81.21,-141.52 61.47 1.98 20
4 07/13/2015 01:01:30 -81.23, 26.35 118.49 07/13/2015 01:02:24 -81.22, 26.18 118.49 2.98 54
5 07/15/2015 19:46:21 81.20, -75.35 61.85 07/15/2015 19:46:03 81.21, -75.27 61.86 1.51 18
6 07/15/2015 20:35:47 -81.23, 92.65 118.09 07/15/2015 20:36:43 -81.22, 92.47 118.09 3.04 56
7 07/18/2015 15:20:37 81.21, -8.80 62.33 07/18/2015 15:20:21 81.21, -8.69 62.34 1.80 16
8 07/18/2015 16:10:03 -81.23, 159.22 117.61 07/18/2015 16:11:01 -81.23, 159.09 117.60 2.32 58
9 07/21/2015 10:54:52 81.21, 57.66 62.85 07/21/2015 10:54:38 81.22, 57.84 62.87 3.02 14




NCC Satellite Simultaneous Nadir Overpasses (SNOs) Prediction Service
